Weather reports worldwide

Advertisment
Mte.Calamita, Italy (16197): temperature & dewpoint: 13.11.2019 19:00:00 - 19.11.2019 19:00:00 (CET)Mte.Calamita, Italy (16197): wind speed: 13.11.2019 19:00:00 - 19.11.2019 19:00:00 (CET)Mte.Calamita, Italy (16197): wind direction: 13.11.2019 19:00:00 - 19.11.2019 19:00:00 (CET)Mte.Calamita, Italy (16197): reduced air pressure: 13.11.2019 19:00:00 - 19.11.2019 19:00:00 (CET)Mte.Calamita, Italy (16197): visibility: 13.11.2019 19:00:00 - 19.11.2019 19:00:00 (CET)Mte.Calamita, Italy (16197): sunshine duration: 13.11.2019 19:00:00 - 19.11.2019 19:00:00 (CET)
Date & Time tt [°C] td [°C] ff [km/h] ff [kn] dd ppp [hPa] vv [km] sd [min]
19.11.2019 19:00:00 - - - - - - - -
19.11.2019 18:00:00 12,0 10,0 13 7 SSE - 10 -
19.11.2019 17:00:00 12,0 10,0 15 8 SSE - 10 -
19.11.2019 16:00:00 12,0 10,1 15 8 SSE 1009,7 30 0
19.11.2019 15:00:00 12,0 10,0 15 8 SSE - 10 -
19.11.2019 14:00:00 13,0 11,0 18 10 SSE - 10 -
19.11.2019 13:00:00 12,0 10,2 26 14 SSE 1008,8 10 0
19.11.2019 12:00:00 12,0 10,0 22 12 SSE - 10 -
19.11.2019 11:00:00 12,0 10,0 22 12 SSE - 10 -
19.11.2019 10:00:00 12,0 10,6 29 16 S 1008,4 0,2 0
19.11.2019 09:00:00 12,0 11,0 44 24 S - 5 -
19.11.2019 08:00:00 13,0 11,0 50 27 S - 5 -
19.11.2019 07:00:00 13,0 11,4 50 27 S 1006,3 7 0
19.11.2019 06:00:00 - - - - - - - -
19.11.2019 05:00:00 - - - - - - - -
19.11.2019 04:00:00 - - - - - - - -
19.11.2019 03:00:00 - - - - - - - -
19.11.2019 02:00:00 - - - - - - - -
19.11.2019 01:00:00 - - - - - - - -
19.11.2019 00:00:00 - - - - - - - -
18.11.2019 23:00:00 - - - - - - - -
18.11.2019 22:00:00 - - - - - - - -
18.11.2019 21:00:00 - - - - - - - -
18.11.2019 20:00:00 12,0 11,0 46 25 S - 7 -
18.11.2019 19:00:00 13,0 8,9 42 23 S 1008,2 10 0
18.11.2019 18:00:00 12,0 8,0 37 20 S - 10 -
18.11.2019 17:00:00 12,0 11,0 41 22 S - 8 -
18.11.2019 16:00:00 11,6 10,4 34 18 S 1008,4 8 0
18.11.2019 15:00:00 11,0 11,0 37 20 SSE - 10 -
18.11.2019 14:00:00 13,0 10,0 21 11 S - 10 -
18.11.2019 13:00:00 12,0 8,8 18 10 S 1009,4 20 0
18.11.2019 12:00:00 12,0 9,0 15 8 SSW - 10 -
18.11.2019 11:00:00 12,0 10,0 15 8 SW - 10 -
18.11.2019 10:00:00 12,0 9,5 13 7 SSW 1009,7 20 0
18.11.2019 09:00:00 11,0 8,0 9 5 SSW - 10 -
18.11.2019 08:00:00 10,0 8,0 9 5 SSW - 10 -
18.11.2019 07:00:00 10,0 7,8 8 4 SSW 1009,0 15 0
18.11.2019 06:00:00 - - - - - - - -
18.11.2019 05:00:00 - - - - - - - -
18.11.2019 04:00:00 - - - - - - - -
18.11.2019 03:00:00 - - - - - - - -
18.11.2019 02:00:00 - - - - - - - -
18.11.2019 01:00:00 - - - - - - - -
18.11.2019 00:00:00 - - - - - - - -
17.11.2019 23:00:00 - - - - - - - -
17.11.2019 22:00:00 - - - - - - - -
17.11.2019 21:00:00 - - - - - - - -
17.11.2019 20:00:00 10,0 6,0 5 3 WNW - 10 -
17.11.2019 19:00:00 10,0 7,2 9 5 SSW 1005,8 10 0
17.11.2019 18:00:00 10,0 7,0 5 3 SSW - 10 -
17.11.2019 17:00:00 10,0 7,0 5 3 W - 10 -
17.11.2019 16:00:00 11,0 6,2 9 5 WNW 1004,2 30 60
17.11.2019 15:00:00 12,0 6,0 13 7 WNW - 10 -
17.11.2019 14:00:00 10,0 6,0 11 6 WNW - 10 -
17.11.2019 13:00:00 10,0 7,6 15 8 N 1002,6 40 0
17.11.2019 12:00:00 10,0 7,0 29 16 NNW - 10 -
17.11.2019 11:00:00 9,0 7,0 28 15 NNW - 10 -
17.11.2019 10:00:00 9,0 7,0 31 17 WNW 1000,7 10 0
17.11.2019 09:00:00 9,0 7,0 29 16 WNW - 7 -
17.11.2019 08:00:00 10,0 8,0 8 4 N - 0,8 -
17.11.2019 07:00:00 10,0 8,1 9 5 N 997,2 0,4 0
17.11.2019 06:00:00 - - - - - - - -
17.11.2019 05:00:00 - - - - - - - -
17.11.2019 04:00:00 - - - - - - - -
17.11.2019 03:00:00 - - - - - - - -
17.11.2019 02:00:00 - - - - - - - -
17.11.2019 01:00:00 - - - - - - - -
17.11.2019 00:00:00 - - - - - - - -
16.11.2019 23:00:00 - - - - - - - -
16.11.2019 22:00:00 - - - - - - - -
16.11.2019 21:00:00 - - - - - - - -
16.11.2019 20:00:00 8,0 6,0 29 16 NNE - 8 -
16.11.2019 19:00:00 8,2 6,8 28 15 NNE 1004,8 8 0
16.11.2019 18:00:00 8,0 7,0 4 2 ESE - 5 -
16.11.2019 17:00:00 9,0 8,0 4 2 ENE - 3,0 -
16.11.2019 16:00:00 9,0 8,4 4 2 SSE 1008,0 0,8 0
16.11.2019 15:00:00 11,0 9,0 4 2 SSE - 10 -
16.11.2019 14:00:00 11,0 8,0 5 3 SSE - 10 -
16.11.2019 13:00:00 11,2 8,2 5 3 S 1009,0 70 0
16.11.2019 12:00:00 11,0 8,0 8 4 SSW - 10 -
16.11.2019 11:00:00 11,0 7,0 9 5 SSW - 10 -
16.11.2019 10:00:00 11,0 7,1 5 3 SSW 1009,6 70 0
16.11.2019 09:00:00 10,0 7,0 5 3 SSW - 10 -
16.11.2019 08:00:00 10,0 7,0 15 8 SSW - 10 -
16.11.2019 07:00:00 10,0 6,7 22 12 SSW 1008,1 20 0
16.11.2019 06:00:00 - - - - - - - -
16.11.2019 05:00:00 - - - - - - - -
16.11.2019 04:00:00 - - - - - - - -
16.11.2019 03:00:00 - - - - - - - -
16.11.2019 02:00:00 - - - - - - - -
16.11.2019 01:00:00 - - - - - - - -
16.11.2019 00:00:00 - - - - - - - -
15.11.2019 23:00:00 - - - - - - - -
15.11.2019 22:00:00 - - - - - - - -
15.11.2019 21:00:00 - - - - - - - -
15.11.2019 20:00:00 10,0 8,0 22 12 W - 10 -
15.11.2019 19:00:00 10,0 7,6 22 12 SSW 1000,5 10 0
15.11.2019 18:00:00 10,0 8,0 13 7 SSW - 10 -
15.11.2019 17:00:00 10,0 8,0 8 4 S - 10 -
15.11.2019 16:00:00 9,8 7,9 9 5 S 1000,5 0,5 0
15.11.2019 15:00:00 10,0 8,0 11 6 SSW - 10 -
15.11.2019 14:00:00 10,0 8,0 11 6 W - 8 -
15.11.2019 13:00:00 10,2 8,5 13 7 S 1000,2 0,1 0
15.11.2019 12:00:00 10,0 8,0 15 8 S - 3,0 -
15.11.2019 11:00:00 11,0 9,0 26 14 S - 7 -
15.11.2019 10:00:00 12,0 10,4 28 15 S 1000,1 1,5 0
15.11.2019 09:00:00 12,0 10,0 31 17 S - 4,0 -
15.11.2019 08:00:00 12,0 10,0 28 15 S - 0,1 -
15.11.2019 07:00:00 12,2 10,3 28 15 S 998,9 7 0
15.11.2019 06:00:00 - - - - - - - -
15.11.2019 05:00:00 - - - - - - - -
15.11.2019 04:00:00 - - - - - - - -
15.11.2019 03:00:00 - - - - - - - -
15.11.2019 02:00:00 - - - - - - - -
15.11.2019 01:00:00 - - - - - - - -
15.11.2019 00:00:00 - - - - - - - -
14.11.2019 23:00:00 - - - - - - - -
14.11.2019 22:00:00 - - - - - - - -
14.11.2019 21:00:00 - - - - - - - -
14.11.2019 20:00:00 11,0 7,0 34 18 S - 10 -
14.11.2019 19:00:00 11,0 5,3 31 17 S 1002,4 10 0
14.11.2019 18:00:00 11,0 5,0 28 15 S - 10 -
14.11.2019 17:00:00 11,0 7,0 18 10 S - 10 -
14.11.2019 16:00:00 12,0 7,7 18 10 S 1003,1 20 0
14.11.2019 15:00:00 13,0 8,0 22 12 S - 10 -
14.11.2019 14:00:00 14,0 9,0 11 6 SSE - 10 -
14.11.2019 13:00:00 13,8 11,3 13 7 ESE 1003,9 20 30
14.11.2019 12:00:00 13,0 10,0 13 7 ENE - 10 -
14.11.2019 11:00:00 13,0 10,0 8 4 E - 10 -
14.11.2019 10:00:00 11,0 8,6 5 3 ENE 1005,4 20 60
14.11.2019 09:00:00 10,0 9,0 5 3 ESE - 10 -
14.11.2019 08:00:00 10,0 9,0 5 3 E - 10 -
14.11.2019 07:00:00 9,8 8,4 15 8 ESE 1004,6 10 0
14.11.2019 06:00:00 - - - - - - - -
14.11.2019 05:00:00 - - - - - - - -
14.11.2019 04:00:00 - - - - - - - -
14.11.2019 03:00:00 - - - - - - - -
14.11.2019 02:00:00 - - - - - - - -
14.11.2019 01:00:00 - - - - - - - -
14.11.2019 00:00:00 - - - - - - - -
13.11.2019 23:00:00 - - - - - - - -
13.11.2019 22:00:00 - - - - - - - -
13.11.2019 21:00:00 - - - - - - - -
13.11.2019 20:00:00 10,0 6,0 4 2 N - 10 -
13.11.2019 19:00:00 10,0 5,6 5 3 N 1002,3 10 0

tt = temperature
td = dewpoint
ff = wind speed
dd = wind direction
ppp = reduced air pressure
vv = visibility
sd = sunshine duration

Next stations